Location: Sungai Bunut
(2.6333°N, 113.7333°E)
Time: 10:32:58
(UTC+00:00)

Courier 1B - Pass Details

Date: 08 December 2023
Orbit: 962 x 1209 km, 28.3° (Epoch: 03 March)

Event Time Altitude Azimuth Distance (km) Brightness Sun altitude
Exits shadow 20:30:43 31° 241° (WSW) 1,937 8.7 -25.5°
Maximum altitude 20:34:51 88° 329° (NNW) 1,167 7.8 -24.5°
Drops below altitude 10° 20:42:17 10° 59° (ENE) 2,982 10.5 -22.8°
Sets 20:44:59 0° 60° (ENE) 3,904 11.2 -22.2°
